MPEC 2003-E11 : S/2003 J 1, 2003 J 2, 2003 J 3, 2003 J 4, 2003 J 5, 2003 J 6, 2003 J 7

The following Minor Planet Electronic Circular may be linked-to from your own Web pages, but must not otherwise be redistributed electronically.


Read MPEC 2003-E10 Read MPEC 2003-E12


M.P.E.C. 2003-E11                                Issued 2003 Mar. 4, 19:46 UT

     The Minor Planet Electronic Circulars contain information on unusual
         minor planets and routine data on comets.  They are published
   on behalf of Commission 20 of the International Astronomical Union by the
          Minor Planet Center, Smithsonian Astrophysical Observatory,
                          Cambridge, MA 02138, U.S.A.

             Prepared using the Tamkin Foundation Computer Network

                              MPC@CFA.HARVARD.EDU
          URL http://cfa-www.harvard.edu/iau/mpc.html  ISSN 1523-6714

    S/2003 J 1, 2003 J 2, 2003 J 3, 2003 J 4, 2003 J 5, 2003 J 6, 2003 J 7

Observations:
    SK03J010  C2003 02 05.40405 09 06 29.49 +17 45 42.5          22.5 R      568
    SK03J010  C2003 02 05.47231 09 06 27.12 +17 45 54.4                      568
    SK03J010  C2003 02 06.32341 09 05 58.40 +17 48 20.4                      568
    SK03J010  C2003 02 06.38207 09 05 56.27 +17 48 29.6                      568
    SK03J010  C2003 02 24.44985 08 56 13.18 +18 35 38.3                      568
    SK03J010  C2003 02 24.47407 08 56 12.45 +18 35 41.8          23.1 R      568
    SK03J010  C2003 03 02.45590 08 53 24.30 +18 48 32.4          22.5 R      568
    SK03J010  C2003 03 02.46425 08 53 24.08 +18 48 33.3                      568
    SK03J010  C2003 03 03.47084 08 52 57.58 +18 50 33.0          22.6 R      568
    SK03J010  C2003 03 03.47685 08 52 57.40 +18 50 33.7                      568
    SK03J020  C2003 02 05.41367 09 08 10.92 +17 48 34.8          23.3 R      568
    SK03J020  C2003 02 05.48193 09 08 08.58 +17 48 42.6                      568
    SK03J020  C2003 02 06.33303 09 07 40.25 +17 50 17.8                      568
    SK03J020  C2003 02 06.39169 09 07 38.25 +17 50 24.8                      568
    SK03J020  C2003 02 24.45242 08 58 00.29 +18 20 00.0                      568
    SK03J020  C2003 02 24.47662 08 57 59.53 +18 20 02.0          23.2 R      568
    SK03J020  C2003 03 04.29527 08 54 23.76 +18 29 23.7                      568
    SK03J020  C2003 03 04.30293 08 54 23.59 +18 29 24.4                      568
    SK03J030  C2003 02 05.42008 09 06 19.80 +17 02 15.5          23.1 R      568
    SK03J030  C2003 02 05.48834 09 06 17.73 +17 02 27.7                      568
    SK03J030  C2003 02 06.37242 09 05 51.59 +17 05 03.1                      568
    SK03J030  C2003 02 06.40772 09 05 50.51 +17 05 09.3                      568
    SK03J030  C2003 02 06.45622 09 05 49.05 +17 05 17.5          23.6 R      568
    SK03J030  C2003 02 06.47625 09 05 48.44 +17 05 20.9          23.7 R      568
    SK03J030  C2003 02 23.46141 08 57 48.46 +17 52 28.5                      568
    SK03J030  C2003 02 23.46969 08 57 48.30 +17 52 29.8                      568
    SK03J030  C2003 02 25.45775 08 56 57.65 +17 57 29.6                      568
    SK03J030  C2003 02 25.48177 08 56 57.03 +17 57 33.0          23.4 R      568
    SK03J030  C2003 03 03.37375 08 54 37.64 +18 11 27.6          23.5 R      568
    SK03J030  C2003 03 03.37852 08 54 37.51 +18 11 28.3                      568
    SK03J040  C2003 02 05.46822 09 08 39.47 +16 27 39.0          22.7 R      568
    SK03J040  C2003 02 05.49476 09 08 38.68 +16 27 43.4                      568
    SK03J040  C2003 02 06.37887 09 08 12.36 +16 30 04.6                      568
    SK03J040  C2003 02 06.41413 09 08 11.29 +16 30 10.2                      568
    SK03J040  C2003 02 24.45756 08 59 40.55 +17 15 36.7                      568
    SK03J040  C2003 02 24.48178 08 59 39.92 +17 15 39.7          23.4 R      568
    SK03J040  C2003 03 04.35525 08 56 32.52 +17 32 36.0                      568
    SK03J040  C2003 03 04.36262 08 56 32.36 +17 32 37.1                      568
    SK03J050  C2003 02 06.37566 09 07 25.80 +16 47 29.0          22.3 R      568
    SK03J050  C2003 02 06.41093 09 07 24.83 +16 47 34.6                      568
    SK03J050  C2003 02 10.44861 09 05 24.30 +16 57 00.0                      568
    SK03J050  C2003 02 23.53234 08 59 17.84 +17 25 17.6          22.0 R      568
    SK03J050  C2003 02 23.53709 08 59 17.71 +17 25 18.4          22.4 R      568
    SK03J050  C2003 03 03.49764 08 56 07.04 +17 39 52.5          22.5 R      568
    SK03J050  C2003 03 03.50368 08 56 06.90 +17 39 53.2                      568
    SK03J060  C2003 02 06.45622 09 04 27.64 +16 58 33.3          23.0 R      568
    SK03J060  C2003 02 06.46625 09 04 27.29 +16 58 35.1                      568
    SK03J060  C2003 02 06.47625 09 04 26.91 +16 58 36.4                      568
    SK03J060  C2003 02 09.52620 09 02 41.49 +17 06 48.9                      568
    SK03J060  C2003 02 09.53469 09 02 41.15 +17 06 49.9                      568
    SK03J060  C2003 02 23.52010 08 55 02.40 +17 42 23.1          22.7 R      568
    SK03J060  C2003 02 23.52604 08 55 02.20 +17 42 24.3                      568
    SK03J060  C2003 02 25.45775 08 54 04.14 +17 46 55.0                      568
    SK03J060  C2003 02 25.48177 08 54 03.41 +17 46 58.2          22.6 R      568
    SK03J060  C2003 03 03.35160 08 51 18.08 +17 59 53.2          22.5 R      568
    SK03J060  C2003 03 03.35639 08 51 17.95 +17 59 53.7                      568
    SK03J060  C2003 03 04.26791 08 50 54.01 +18 01 47.0                      568
    SK03J060  C2003 03 04.27382 08 50 53.86 +18 01 47.9                      568
    SK03J070  C2003 02 08.34332 08 57 54.63 +18 31 32.5          22.7 R      568
    SK03J070  C2003 02 08.36322 08 57 53.90 +18 31 35.8          22.7 R      568
    SK03J070  C2003 02 09.46730 08 57 13.17 +18 34 26.0          22.9 R      568
    SK03J070  C2003 02 09.48712 08 57 12.44 +18 34 29.1                      568
    SK03J070  C2003 02 10.62672 08 56 30.74 +18 37 21.8                      568
    SK03J070  C2003 02 23.50841 08 49 08.30 +19 06 03.1          22.4 R      568
    SK03J070  C2003 02 23.51377 08 49 08.15 +19 06 04.0                      568
    SK03J070  C2003 02 26.38863 08 47 39.57 +19 11 21.0          22.6 R      568
    SK03J070  C2003 02 26.41172 08 47 38.86 +19 11 23.1                      568
    SK03J070  C2003 03 02.51088 08 45 40.84 +19 18 06.8          22.4 R      568
    SK03J070  C2003 03 02.51913 08 45 40.60 +19 18 07.6                      568

Observer details:
568 Mauna Kea.  Observers S. S. Sheppard, D. C. Jewitt, J. Kleyna, Y. R.
    Fernandez, H. H. Hsieh.  Measurer S. S. Sheppard.  8.3-m Subaru Telescope
    + CCD, 3.6-m Canada-France-Hawaii Telescope + CCD, 2.2-m University of
    Hawaii Telescope + CCD.

Orbital elements:
S/2003 J 1
Epoch 2003 June 10.0 TT = JDT 2452800.5                 MPC
M   7.16238              (2000.0)            P               Q
n   1.52744019     Peri.  194.41253     -0.03340095     -0.82279012
a   0.0735297      Node   260.07005     +0.96451450     +0.12222689
e   0.7915189      Incl.   35.16912     +0.26190866     -0.55504686
P   0.65           H   16.0           P/d   235.69
Residuals in seconds of arc
K0325  568  1.1+  0.0     K032O  568  0.1+  0.3-    K0333  568  0.2-  0.2+
K0325  568  1.0+  0.2+    K032O  568  0.2+  0.1-    K0333  568  0.4-  0.2+
K0326  568  0.4-  0.4+    K0332  568  0.2+  0.0
K0326  568  1.8-  0.5-    K0332  568  0.3+  0.1-

S/2003 J 2
Epoch 2003 June 10.0 TT = JDT 2452800.5                 MPC
M  36.52172              (2000.0)            P               Q
n   0.36637050     Peri.  167.10879     -0.95527094     -0.29316106
a   0.1904694      Node     4.72736     -0.29543370     +0.95191934
e   0.3797206      Incl.  151.82729     -0.01327991     -0.08891660
P   2.69           H   16.6           P/d   982.61
Residuals in seconds of arc
K0325  568  0.1+  0.0     K0326  568  0.0   0.1+    K0334  568  0.2-  0.1-
K0325  568  0.0   0.1+    K032O  568  0.2+  0.0     K0334  568  0.2+  0.1+
K0326  568  0.1-  0.2-    K032O  568  0.2-  0.0

S/2003 J 3
Epoch 2003 June 10.0 TT = JDT 2452800.5                 MPC
M 350.63033              (2000.0)            P               Q
n   0.71236109     Peri.   98.22845     -0.62274111     +0.58974945
a   0.1222659      Node   240.35984     +0.24328124     +0.77054216
e   0.2414308      Incl.  143.72940     +0.74364491     +0.24178579
P   1.38           H   16.9           P/d   505.36
Residuals in seconds of arc
K0325  568  0.1-  0.1-    K0326  568  0.1+  0.1-    K032P  568  0.0   0.0
K0325  568  0.1+  0.1+    K0326  568  0.2+  0.2-    K032P  568  0.0   0.1-
K0326  568  0.1-  0.2+    K032N  568  0.4-  0.0     K0333  568  0.2+  0.0
K0326  568  0.1-  0.2+    K032N  568  0.4+  0.0     K0333  568  0.1-  0.1+

S/2003 J 4
Epoch 2003 June 10.0 TT = JDT 2452800.5                 MPC
M 166.68006              (2000.0)            P               Q
n   0.49881450     Peri.  193.98059     +0.99018906     -0.08996088
a   0.1550528      Node   190.70665     +0.04260002     -0.53442018
e   0.2044198      Incl.  144.86276     -0.13308213     -0.84041782
P   1.98           H   16.4           P/d   721.71
Residuals in seconds of arc
K0325  568  0.2-  0.1-    K0326  568  0.1+  0.0     K0334  568  0.0   0.1-
K0325  568  0.2+  0.1+    K032O  568  0.1-  0.1+    K0334  568  0.0   0.1+
K0326  568  0.1-  0.0     K032O  568  0.1+  0.1-

